Location: Holbach
(51.5399°N, 10.6036°E)
Time: 11:46:02
(UTC+00:00)

DMSP B5D2-2 - Pass Details

Date: 18 September 2020
Orbit: 790 x 806 km, 98.3° (Epoch: 30 October)

Event Time Altitude Azimuth Distance (km) Brightness Sun altitude
Rises 18:38:04 0° 19° (NNE) 3,335 7.3 -12.1°
Reaches altitude 10° 18:40:33 10° 27° (NNE) 2,400 6.5 -12.5°
Maximum altitude 18:45:34 41° 97° (E) 1,156 4.5 -13.2°
Drops below altitude 10° 18:50:32 10° 167° (SSE) 2,382 6.2 -13.9°
Sets 18:52:59 0° 175° (S) 3,307 7.0 -14.3°
